RH
9 10 10 10 9 10 9 9 9 9 9 9 9 9 9 9 9 10 10 10 11 11 12 12 9 8 8 8 8 6 7 5 9 17 20 21 19 17 15 12 10 9 11 12 10 9 10 12 13 12 14 16 16 16 16 19 21 26 43 55 60 62 54 44 34 29 32 32 28 30 31 31 37 38 39 45 53 60 63 65 72 78 79 82 85 87 91 91
9 10 10 10 10 10 9 9 9 10 10 10 10 10 9 9 9 9 9 9 10 10 11 12 12 12 9 8 6 6 6 4 11 19 19 19 16 14 13 11 12 12 12 12 9 7 7 10 13 13 14 15 16 17 18 20 22 32 48 53 54 53 42 32 27 24 27 29 28 31 30 33 39 35 36 52 66 65 64 65 67 77 83 86 91 93 96 94
10 10 10 10 10 10 10 10 10 10 10 10 10 9 9 9 9 9 9 9 9 10 10 11 12 13 12 10 7 6 5 7 16 21 18 14 12 12 13 13 14 13 12 11 8 7 6 8 11 13 13 13 15 17 19 21 23 29 39 51 55 46 31 23 22 21 23 25 28 33 33 41 46 37 41 58 69 64 63 66 62 70 83 91 97 97 99 99
10 10 10 10 10 10 10 9 9 9 9 9 9 9 9 9 10 9 9 9 9 9 9 10 11 12 14 11 9 6 5 14 21 20 16 13 13 12 12 13 13 12 12 9 7 7 8 8 11 12 12 14 15 16 21 21 23 28 35 49 51 36 26 22 20 20 21 23 27 33 33 44 50 44 47 56 69 70 60 62 63 64 74 84 93 97 99 99
11 11 10 10 10 10 10 9 9 9 8 8 9 9 9 9 9 9 9 9 9 9 9 10 10 12 13 11 11 6 10 26 24 16 16 14 13 12 12 13 13 12 10 9 9 9 10 10 10 11 12 15 15 17 21 20 21 27 31 35 34 25 23 21 18 19 21 23 27 32 35 43 49 53 56 57 68 70 61 63 66 66 71 78 86 92 97 98
11 10 10 10 10 10 9 9 9 9 9 9 9 9 9 9 9 9 9 9 9 9 9 10 11 12 13 12 11 9 17 30 21 13 15 12 12 13 14 15 13 11 9 10 11 12 13 12 11 10 12 17 19 19 18 17 19 27 30 23 21 20 19 18 18 19 19 22 30 35 39 44 50 58 59 57 61 62 63 67 67 71 73 77 82 87 92 92
11 10 10 10 10 10 9 9 9 9 9 9 10 9 9 9 9 9 9 9 9 9 9 9 11 11 13 12 11 18 23 22 16 14 14 12 15 16 17 15 12 11 11 12 12 14 14 13 13 9 11 18 20 18 16 16 16 23 32 24 18 18 17 18 19 21 21 26 33 35 37 42 48 53 54 55 58 60 65 68 69 73 74 77 81 81 83 84
11 11 11 10 10 10 10 10 9 9 10 9 9 8 9 9 9 9 8 9 8 8 9 9 11 12 14 12 13 23 23 17 15 14 13 15 16 16 15 14 13 12 11 14 14 14 13 13 14 11 14 18 17 17 14 19 24 26 29 24 17 17 17 19 21 22 25 29 30 32 38 44 45 48 53 55 58 61 64 67 70 72 75 77 76 76 78 78
11 11 11 11 10 10 10 10 9 9 9 8 8 9 9 9 8 8 8 9 8 8 9 9 11 13 14 14 17 22 18 15 16 14 15 16 15 15 15 14 15 13 12 16 16 15 14 14 15 15 17 16 16 17 12 20 33 29 24 22 20 19 17 19 23 24 26 29 27 33 42 43 41 43 52 56 57 61 62 65 68 70 72 72 72 73 74 75
11 11 11 11 11 10 10 9 9 8 8 8 8 10 9 8 7 8 7 7 8 8 9 9 12 15 15 16 19 21 17 16 16 15 15 15 14 14 14 14 14 13 13 14 16 16 15 15 16 16 14 13 17 19 16 22 30 26 20 19 19 19 17 17 23 26 27 29 27 33 40 38 37 44 54 57 55 56 59 63 66 68 69 68 70 70 69 72
12 12 12 12 12 11 11 11 10 9 8 9 9 10 8 6 6 6 7 7 8 8 9 12 13 15 16 16 17 18 18 16 15 15 14 14 15 14 15 15 14 14 13 14 17 17 16 17 15 14 15 16 20 21 20 23 26 22 18 21 24 20 18 19 22 25 27 29 28 30 38 39 40 48 55 54 54 55 57 62 63 63 64 63 66 65 66 66
12 12 11 11 11 11 12 12 12 11 10 10 10 8 6 6 6 6 7 7 8 10 12 14 13 16 18 17 17 18 17 15 14 15 16 16 15 15 18 18 16 14 14 14 17 18 17 15 12 14 18 20 23 24 25 26 22 18 18 29 38 30 23 21 20 23 25 31 28 24 39 48 47 51 53 51 53 54 55 56 57 56 56 57 59 60 59 59
12 11 11 10 10 10 11 11 12 12 10 10 8 6 6 6 7 8 9 10 12 13 13 13 15 21 20 17 18 19 17 16 16 16 17 18 16 17 19 20 18 16 16 15 14 16 15 14 13 15 19 22 24 23 25 23 19 24 27 29 37 41 39 25 19 23 24 31 22 20 50 59 49 49 50 51 51 51 53 52 51 50 49 50 51 52 51 51
12 12 11 10 10 9 10 10 10 11 10 9 7 6 6 7 9 10 10 13 13 13 14 16 22 23 18 18 21 19 17 18 17 16 16 15 15 17 19 20 19 17 17 15 14 14 12 14 15 16 20 21 20 22 29 27 22 30 38 40 38 41 47 30 19 25 26 30 21 31 67 62 43 47 48 50 51 50 52 51 50 50 49 49 48 49 48 47
14 14 13 11 10 9 9 9 9 10 9 7 6 6 7 9 11 9 10 13 14 15 16 20 27 25 18 18 22 19 18 18 15 14 15 13 15 17 17 18 19 18 18 16 14 13 14 17 19 23 25 23 24 29 41 45 39 37 44 59 54 44 52 38 21 26 27 28 24 38 69 59 42 47 47 48 50 49 51 50 51 50 50 51 51 52 51 49
18 16 15 13 10 9 9 9 9 8 7 7 6 6 9 12 11 10 13 15 17 20 20 23 25 24 22 20 19 18 18 19 17 14 13 13 16 17 16 17 19 19 18 17 15 15 17 18 20 24 23 29 34 35 52 65 62 57 49 52 50 43 51 46 31 30 27 30 34 41 58 56 46 46 46 48 49 49 50 49 49 49 49 51 52 53 53 53
19 17 16 14 9 8 7 7 7 6 7 6 6 8 12 14 12 11 14 16 19 20 21 23 20 20 23 19 18 19 19 21 19 14 11 13 17 17 16 17 19 18 18 19 18 18 20 20 24 28 26 34 40 43 65 74 62 63 58 49 48 40 41 47 43 39 35 39 44 44 51 53 46 45 47 48 48 49 49 47 47 48 50 51 53 54 53 53
16 15 15 13 9 7 6 6 6 5 7 6 6 11 15 16 14 13 17 20 21 20 20 20 21 28 28 20 21 21 20 22 20 15 12 13 18 19 16 18 19 19 18 19 19 19 21 23 28 37 39 41 45 50 62 60 48 54 59 55 55 49 48 55 52 45 44 48 49 47 50 50 45 45 47 48 49 48 47 46 47 48 51 53 53 54 53 52
13 13 12 10 7 6 6 6 5 5 7 6 7 15 21 20 16 14 17 19 20 25 26 21 22 31 28 21 21 20 20 23 20 16 13 13 19 20 19 21 19 19 21 24 25 22 23 32 40 49 53 49 48 51 50 45 44 51 55 53 54 56 58 59 54 48 45 48 52 51 51 50 47 47 46 47 47 46 46 46 47 48 50 52 52 52 52 52
11 10 8 7 6 6 6 5 6 7 7 6 10 23 30 27 25 20 17 20 22 26 26 22 21 22 22 22 20 17 19 22 19 18 17 16 18 19 21 22 20 24 31 35 37 29 27 44 56 55 53 49 46 46 45 42 47 54 55 56 60 64 62 54 51 49 45 52 55 49 51 51 48 48 46 47 47 46 48 47 47 48 48 49 49 49 49 50
8 7 6 6 5 6 6 5 7 7 8 8 9 19 21 21 29 27 24 29 28 23 20 19 20 20 21 23 20 17 17 19 17 17 20 19 18 20 24 27 33 41 41 38 39 33 32 52 60 48 43 47 45 43 45 46 50 56 57 62 68 67 63 54 52 50 45 55 57 48 51 53 48 49 47 46 48 48 48 48 48 48 48 48 47 47 48 49
6 5 6 6 5 6 5 6 9 7 9 9 7 10 10 14 24 24 25 31 29 23 20 18 17 19 21 22 22 20 18 21 20 17 20 20 22 26 27 33 43 48 44 40 43 44 48 56 51 40 41 48 46 43 48 53 55 55 56 66 69 61 60 58 57 55 48 54 58 50 53 56 53 53 51 50 52 51 49 48 48 47 47 47 46 47 48 50
5 5 5 4 4 5 5 9 9 8 9 8 7 8 11 16 24 24 24 31 33 27 22 20 18 19 21 22 22 21 20 25 26 23 21 21 25 30 33 38 46 49 48 48 49 52 56 52 41 37 43 50 48 45 53 59 60 56 51 58 62 55 57 62 61 60 54 54 54 52 57 62 59 58 57 55 53 52 50 48 48 47 47 47 47 48 50 52
7 6 3 2 5 5 8 12 9 9 9 6 7 8 11 19 25 27 27 32 37 32 28 24 20 22 23 22 23 23 23 24 27 25 22 23 26 30 36 40 48 55 53 50 50 52 52 43 34 35 41 48 51 52 58 60 62 63 54 50 53 53 55 60 61 58 57 54 50 54 65 66 64 67 66 57 54 53 51 50 49 48 48 48 50 51 52 54
10 7 3 3 6 5 13 18 11 9 11 8 7 8 11 16 24 29 34 43 42 33 33 28 21 23 22 23 25 22 23 23 26 27 22 23 26 31 36 34 43 59 57 50 48 51 47 35 31 36 41 48 53 55 58 58 62 66 56 45 47 52 55 59 61 61 65 65 55 57 73 76 67 69 70 61 59 60 54 53 52 51 51 51 51 53 54 55
12 9 3 5 6 8 20 23 11 10 16 11 6 10 11 14 24 27 37 64 58 33 31 28 24 26 22 24 23 22 30 29 26 27 23 23 25 29 39 37 39 50 51 47 48 51 49 39 35 40 45 52 55 53 52 57 65 61 50 49 52 53 55 59 61 66 72 70 60 54 67 81 74 67 69 64 63 64 58 55 54 53 52 52 53 54 55 56
13 10 5 6 7 9 17 17 9 10 14 10 8 11 10 14 22 21 37 71 60 29 28 27 22 26 25 25 23 28 41 36 28 27 22 25 25 25 42 51 47 46 47 46 47 48 47 45 43 43 48 53 53 49 49 55 59 51 45 52 57 54 56 58 58 67 69 63 64 57 58 78 80 67 64 65 67 68 62 58 55 53 53 52 53 55 55 58
14 11 7 6 7 8 9 10 9 9 9 9 12 12 13 18 18 22 48 60 38 25 30 26 21 24 24 25 26 31 36 33 36 34 21 23 25 23 39 50 50 55 51 42 48 49 43 46 46 44 49 51 48 45 47 52 53 55 56 57 60 59 60 58 55 64 63 60 71 65 60 81 86 70 64 66 69 71 67 62 58 55 55 55 55 57 57 57
13 10 8 7 8 7 8 10 9 9 11 12 16 16 21 23 17 34 55 40 24 31 32 24 24 24 22 23 26 28 29 30 35 32 22 23 27 27 38 41 40 52 48 41 56 54 38 40 39 41 50 47 44 44 46 48 47 55 60 52 57 67 65 58 56 60 59 63 74 64 63 83 87 77 71 66 70 74 68 62 61 57 56 58 58 58 60 61
12 10 8 8 8 7 8 12 11 11 12 14 21 22 23 28 38 60 58 31 29 35 26 24 27 26 29 34 35 31 32 31 28 27 25 28 29 27 35 34 32 49 55 55 66 56 41 43 38 39 45 38 38 41 41 45 43 50 60 52 53 68 70 61 59 64 67 75 80 65 57 64 74 85 82 73 80 85 73 64 63 60 56 59 61 62 66 68
11 9 9 8 8 7 7 12 13 12 12 16 21 20 25 40 59 67 46 27 35 37 29 32 34 36 39 42 41 37 39 37 30 32 36 37 37 36 40 43 47 64 69 65 68 61 54 53 43 37 33 32 42 40 33 43 48 48 55 54 50 59 69 70 73 77 75 78 78 66 53 49 68 91 89 81 86 89 80 69 65 64 62 62 64 65 68 72
10 10 10 9 8 8 9 11 13 12 14 19 21 25 45 56 51 49 44 34 34 36 36 36 40 46 48 50 48 43 47 44 35 40 47 48 50 53 56 59 64 69 65 58 58 61 57 48 44 41 31 32 47 47 40 47 54 50 48 56 67 72 69 70 77 75 63 60 60 55 47 52 75 87 82 81 84 85 80 69 62 62 66 69 69 68 69 71
11 11 10 9 8 8 9 10 11 13 18 24 26 35 59 60 34 33 52 48 35 36 39 40 48 52 53 59 54 46 52 48 39 42 46 50 58 61 60 59 61 60 56 54 52 58 60 49 49 50 37 33 43 53 53 46 51 55 47 54 79 89 79 75 77 69 62 62 58 50 45 60 85 82 74 80 80 77 76 66 61 63 66 71 70 69 71 72
11 11 9 7 8 8 9 11 10 16 27 31 37 44 49 45 34 38 54 54 46 47 47 47 53 51 49 52 47 47 52 46 46 49 44 49 60 66 65 60 58 60 64 62 49 52 57 43 44 48 36 35 45 48 49 50 57 60 49 52 69 75 75 83 81 70 74 74 61 55 53 67 89 79 69 76 74 71 73 68 67 68 69 71 71 72 74 73
11 11 8 9 15 15 18 20 13 20 30 26 39 59 51 38 44 56 62 60 54 53 54 55 54 49 47 48 46 48 44 38 50 59 54 55 62 67 68 61 57 63 71 65 47 49 51 36 36 41 32 37 46 39 39 51 55 52 52 58 59 49 53 78 82 68 72 73 67 72 73 77 85 78 71 72 70 73 73 70 71 70 72 73 73 75 73 71
12 10 10 13 20 21 24 26 21 27 28 17 37 64 61 50 56 67 66 61 58 56 58 58 53 50 49 48 50 49 40 36 48 61 61 62 64 63 65 61 55 59 68 67 58 58 57 49 46 41 34 38 41 34 35 40 40 50 61 56 45 37 45 73 84 70 64 63 62 68 75 83 81 74 76 74 71 78 76 73 76 73 75 77 74 73 69 66
12 13 15 15 17 21 24 22 21 24 17 23 52 64 60 60 64 74 71 60 62 63 58 52 45 43 46 47 46 47 48 48 49 55 55 55 57 57 64 65 52 52 62 64 66 63 60 64 60 46 40 37 33 34 36 32 34 56 68 52 43 50 59 69 73 75 78 74 67 58 59 76 78 68 79 81 74 79 76 75 78 75 77 78 73 70 65 62
14 14 17 19 19 18 20 19 17 13 9 35 70 69 65 68 60 64 67 59 64 65 56 51 42 37 46 51 46 45 53 58 55 54 51 51 55 54 61 65 52 52 60 61 67 65 58 64 59 45 42 40 39 44 44 37 35 44 50 43 44 55 63 65 60 68 84 82 79 72 58 67 79 80 88 89 79 76 73 75 80 79 78 75 71 69 64 62
21 17 14 20 23 16 18 21 12 7 18 53 79 69 66 72 57 53 59 59 65 60 49 48 45 44 51 53 49 46 48 53 55 55 52 51 55 54 55 59 54 55 59 63 67 60 54 59 54 44 41 39 48 54 51 51 49 46 45 46 56 61 60 63 59 62 82 85 81 82 71 70 82 85 83 78 72 72 71 74 78 78 75 71 69 66 59 55
26 22 15 16 22 18 16 15 12 24 47 68 77 68 63 65 55 49 54 55 57 52 46 50 54 55 53 48 49 48 46 52 55 57 59 56 56 60 60 60 66 68 64 63 65 60 59 56 48 51 47 39 48 53 49 49 50 57 61 58 68 72 62 59 57 62 75 75 74 82 83 81 76 65 63 64 63 66 67 68 72 71 68 66 64 59 50 45
21 24 20 13 18 17 12 16 26 50 71 72 69 68 64 60 51 46 50 50 47 44 44 54 61 61 57 52 50 47 51 59 58 56 60 57 52 57 62 63 72 77 70 63 59 58 62 52 46 60 60 49 51 49 43 41 41 55 66 60 63 69 66 61 62 75 75 55 60 79 82 84 73 51 52 58 55 56 55 53 57 56 53 53 50 47 44 42
18 27 23 14 18 13 13 37 50 59 74 73 64 60 55 53 47 42 44 45 42 39 40 51 60 59 58 56 51 53 60 64 61 58 58 56 52 51 53 55 61 71 74 67 58 56 61 56 55 64 60 54 55 47 41 43 46 52 56 58 68 73 69 62 61 79 84 63 65 74 69 78 75 51 47 51 45 46 47 43 45 43 42 43 42 41 41 41
22 29 21 16 20 8 16 52 66 66 72 65 55 54 51 51 52 49 47 46 43 41 45 53 55 50 50 51 51 57 60 55 56 58 57 61 60 50 45 46 51 64 67 61 59 61 58 47 48 63 64 59 60 52 43 44 48 55 59 62 73 74 70 76 74 78 88 80 69 65 64 73 68 48 43 43 41 43 43 42 42 41 43 43 41 41 40 39
21 24 20 21 19 11 28 58 66 66 64 55 55 56 48 48 56 60 58 54 49 47 52 56 51 44 45 48 52 55 53 48 49 51 52 56 55 48 45 43 47 58 58 52 53 56 54 42 41 63 67 60 69 67 57 56 50 54 64 65 70 76 76 83 82 78 86 78 56 54 68 68 56 51 49 43 43 46 42 42 44 42 43 41 38 41 40 37
19 19 19 20 15 15 35 51 54 61 64 62 63 58 53 53 53 55 55 50 47 46 48 47 44 46 47 47 52 55 53 49 45 47 53 53 52 51 50 45 45 49 50 50 49 55 68 57 40 47 46 37 49 54 55 68 60 51 65 68 68 75 72 67 70 82 94 78 48 47 57 48 40 48 51 47 50 51 44 42 43 41 41 40 38 40 40 37
23 28 28 25 19 21 33 35 38 52 61 66 62 53 60 62 49 44 46 44 44 43 43 44 45 50 52 50 54 54 53 55 53 56 64 64 60 54 49 47 44 41 45 48 46 59 79 66 43 48 48 34 34 36 43 60 54 42 58 73 73 75 73 70 76 89 94 78 58 53 50 40 36 38 40 44 50 51 47 42 41 41 40 39 39 39 39 38
25 39 42 36 28 30 40 37 33 41 47 56 57 47 54 62 53 46 41 37 41 43 43 50 54 56 57 57 56 51 52 60 59 58 63 66 65 56 48 50 46 40 46 48 43 52 64 58 49 52 51 41 35 35 39 50 48 38 46 64 73 77 80 80 76 72 67 62 60 54 45 43 42 35 36 45 49 49 47 42 40 41 40 39 41 39 39 39
29 39 38 36 36 45 55 47 36 41 44 50 57 53 57 68 64 59 54 45 43 44 47 56 63 66 67 61 56 56 59 59 56 60 65 63 66 64 54 53 51 42 42 44 41 43 48 55 58 50 44 43 38 37 41 44 46 44 45 54 63 72 80 81 78 71 59 55 51 41 40 47 45 39 41 45 47 46 43 41 40 40 40 41 41 41 41 41
29 34 31 32 38 45 52 43 33 41 49 55 65 61 62 71 65 63 70 63 52 51 54 62 67 72 77 70 65 72 72 57 51 64 71 62 64 67 53 44 44 38 37 42 46 45 48 63 71 58 51 48 36 38 47 43 42 45 45 49 54 61 71 74 76 72 62 58 52 45 52 57 45 39 41 40 41 41 40 40 40 39 40 40 40 43 44 43
25 29 27 32 37 35 38 35 34 47 56 59 65 59 60 73 67 64 73 68 65 67 66 70 75 75 79 81 81 84 81 66 57 63 69 65 63 65 54 41 37 38 42 48 53 46 37 50 68 60 52 51 42 43 50 44 43 46 44 46 50 55 64 67 67 68 68 70 66 61 68 63 43 36 39 37 38 40 39 40 40 38 40 40 42 44 45 46
23 23 20 29 39 37 33 31 38 61 70 69 70 64 65 73 65 65 74 69 71 78 75 79 81 73 74 84 89 88 81 73 67 61 62 62 54 50 47 38 33 43 53 54 58 54 35 44 70 60 43 49 46 40 44 44 45 49 48 49 50 55 65 65 60 64 70 69 67 67 66 53 37 36 40 39 39 40 40 39 39 40 41 42 44 45 47 49
18 20 16 23 39 43 39 41 52 65 66 64 66 66 68 69 61 63 70 65 64 68 68 70 69 68 80 86 82 78 70 63 60 53 49 45 36 31 33 31 26 34 51 56 60 67 56 53 65 54 45 61 54 33 36 45 51 59 59 51 45 49 60 61 55 56 55 51 53 58 49 33 29 36 41 42 40 40 40 39 39 42 43 44 46 46 48 48
Wind_Speed
9 9 9 9 9 9 9 9 10 10 10 10 10 10 9 9 8 8 8 8 7 8 8 8 8 7 6 5 6 6 5 5 4 4 3 4 5 6 9 10 10 10 9 10 10 8 4 2 3 2 0 3 5 7 6 9 11 6 2 2 3 2 3 4 3 1 4 3 5 10 14 14 8 13 18 19 27 28 31 29 25 23 22 21 18 15 13 12
9 9 8 8 8 8 9 9 10 10 10 10 10 11 10 10 10 9 9 8 8 8 7 8 7 7 6 6 6 6 6 5 3 4 2 3 6 7 8 9 10 10 10 10 9 9 6 1 1 1 5 7 7 7 6 8 11 6 3 2 4 3 4 2 3 3 5 9 11 14 18 18 7 4 10 10 17 25 24 20 20 22 21 19 16 15 15 15
9 8 8 8 8 9 9 9 9 9 10 10 10 10 10 10 10 10 10 9 9 8 8 7 7 7 6 6 6 7 7 4 2 2 1 2 5 6 7 9 10 10 10 10 9 8 6 4 2 2 5 8 10 11 8 7 9 8 5 2 5 6 4 5 9 8 10 14 13 13 18 25 18 9 11 13 18 24 18 14 15 18 20 20 18 17 18 19
8 8 8 8 8 8 8 9 9 9 10 10 11 11 11 11 10 10 10 10 10 9 9 7 7 7 6 6 6 7 6 3 4 3 2 3 5 6 7 9 9 10 10 8 7 6 4 4 2 3 6 6 8 9 8 8 7 7 7 4 5 5 3 5 9 10 13 17 15 13 17 20 22 21 14 14 15 14 14 17 19 20 22 22 20 19 19 20
8 8 8 8 8 8 8 9 9 10 11 11 12 12 12 12 12 11 11 11 10 10 10 8 7 6 6 6 6 7 6 3 2 2 2 4 6 8 9 9 9 9 8 6 4 2 2 4 3 4 4 4 5 4 5 12 10 4 6 10 8 4 2 4 9 11 13 20 18 14 14 10 16 26 24 22 15 8 13 20 23 24 24 24 22 21 19 20
7 7 7 7 8 8 9 10 10 11 11 12 12 12 12 12 12 12 11 11 11 10 10 9 8 6 5 5 5 6 5 2 1 2 4 6 6 8 8 8 8 7 6 3 1 3 5 6 4 4 2 3 4 4 7 11 11 5 5 8 8 6 2 5 11 11 11 19 16 12 15 18 22 23 28 33 22 16 20 21 24 24 23 22 21 20 20 22
7 7 7 8 8 9 10 10 11 12 12 13 13 13 13 12 12 12 11 11 10 10 9 8 7 5 4 5 5 5 4 4 1 3 5 6 7 7 7 7 7 6 5 2 1 3 5 6 5 6 3 3 4 5 8 10 6 6 4 3 6 5 7 10 13 14 16 22 20 20 20 19 22 17 23 31 23 20 21 20 22 21 20 18 18 21 21 22
8 8 8 9 10 10 11 11 12 13 13 13 13 13 13 13 13 12 11 10 9 9 8 7 6 5 3 4 5 5 5 4 4 6 7 9 9 9 7 6 7 7 4 4 5 5 5 5 6 6 3 2 3 4 7 9 3 1 2 4 7 6 13 15 18 21 26 28 27 28 25 24 28 24 24 24 21 20 17 18 19 18 19 19 21 23 21 21
10 10 11 11 11 12 12 12 13 13 13 13 13 13 13 14 13 11 10 9 8 7 6 6 5 3 2 3 5 5 5 6 8 9 11 11 10 10 8 7 7 8 5 3 4 5 5 5 7 7 3 4 5 7 6 4 2 2 3 6 8 9 13 16 18 23 27 25 27 28 21 22 23 19 21 20 19 16 14 17 16 16 20 22 22 22 21 21
11 12 12 12 13 13 13 13 13 13 13 12 12 13 13 13 11 10 9 7 6 5 5 4 2 1 1 4 7 4 5 8 9 11 12 12 10 9 8 6 7 7 5 1 2 4 5 6 7 6 5 5 5 7 7 2 2 6 6 8 5 5 6 11 15 21 24 20 27 26 12 14 14 8 11 16 17 12 13 19 17 18 22 23 21 21 20 19
12 12 12 13 13 13 13 13 12 12 11 11 12 13 13 12 11 10 9 7 5 4 3 1 2 3 3 8 10 6 7 10 11 12 12 13 12 9 7 6 6 5 4 1 3 3 6 7 8 6 4 4 6 8 6 3 4 7 7 9 8 6 2 9 16 20 20 14 27 32 17 18 17 11 11 16 18 14 18 22 20 22 23 22 22 21 20 19
12 13 13 13 13 14 13 13 12 11 11 12 12 12 12 12 11 10 8 6 5 4 4 4 4 5 7 11 14 10 11 14 15 14 13 13 12 9 8 8 6 5 4 1 1 3 5 7 6 4 2 4 6 5 4 5 7 7 5 4 7 9 5 4 12 17 13 10 23 25 13 14 12 11 17 20 20 19 23 24 22 24 23 22 22 21 22 20
13 13 14 14 14 14 13 12 12 11 12 12 12 12 12 11 10 9 8 6 6 5 5 5 6 8 9 11 13 12 14 16 17 15 11 10 9 8 7 8 7 6 7 4 3 5 4 5 4 2 4 5 4 3 5 8 6 4 3 2 3 7 5 5 5 15 12 13 20 10 3 6 6 13 20 19 20 23 25 24 23 24 23 23 23 23 23 21
14 14 14 14 14 14 13 12 12 12 12 12 12 11 11 10 9 9 8 7 7 7 6 8 9 9 10 10 11 14 15 15 17 17 14 13 9 6 5 7 8 8 9 7 4 4 3 1 2 1 3 4 4 5 6 6 2 1 2 1 1 2 3 11 6 11 9 11 13 7 4 3 4 12 19 19 20 25 25 23 23 23 23 23 23 23 23 22
14 14 15 15 14 14 13 12 12 12 12 11 10 10 10 9 9 9 9 9 9 8 8 9 9 8 10 9 7 12 14 14 19 21 19 18 13 8 6 5 5 6 7 6 5 4 3 2 1 2 3 3 3 4 4 4 2 2 2 3 3 2 4 8 9 8 6 9 3 9 6 3 5 12 19 20 21 25 25 22 22 22 22 22 22 22 22 22
15 15 15 15 14 14 13 12 11 12 11 10 9 9 9 8 9 9 9 12 13 10 8 9 9 9 8 6 5 11 13 14 20 23 20 18 14 10 7 4 3 6 7 7 5 4 5 3 2 4 6 5 3 2 3 4 5 3 3 2 3 3 1 3 7 12 7 6 10 10 8 3 5 14 20 21 22 26 24 21 21 21 20 21 21 21 21 20
15 15 15 15 14 13 13 12 11 12 10 8 8 8 7 8 9 9 9 12 14 14 13 11 9 10 9 8 8 12 13 12 19 24 20 14 11 9 7 6 5 5 5 6 4 4 4 3 2 3 7 7 4 3 4 4 5 4 3 1 2 2 1 2 2 13 14 9 10 11 10 6 6 15 20 20 22 24 23 21 21 21 20 20 20 20 20 20
15 14 14 14 14 13 13 12 12 10 7 6 7 6 7 10 12 13 9 7 10 12 13 12 7 6 7 13 12 11 10 10 18 24 18 10 8 8 7 8 7 4 2 3 3 4 5 7 7 4 6 7 5 6 5 1 2 4 4 2 3 3 2 3 2 6 13 13 11 11 11 8 7 12 18 19 21 23 21 21 21 20 19 18 18 19 18 19
14 13 13 13 13 13 12 12 11 8 6 5 5 3 5 9 15 18 17 13 13 10 6 11 12 4 2 12 15 11 8 10 18 22 16 9 7 7 8 8 7 7 4 2 4 7 8 9 10 6 5 6 5 4 3 2 3 5 4 1 2 4 2 3 4 4 12 12 8 10 10 8 8 9 14 18 21 23 21 20 20 19 18 17 17 17 17 17
14 13 13 12 12 12 11 11 9 6 5 4 3 3 4 6 9 13 21 25 23 16 10 12 15 10 6 11 17 14 8 10 19 23 19 13 6 6 12 8 3 8 7 2 3 9 13 8 6 5 5 6 6 5 3 2 3 2 2 3 3 4 3 1 2 4 12 10 5 9 10 8 8 7 12 18 19 20 19 18 18 18 17 17 16 16 15 14
13 13 12 11 11 11 11 9 6 5 5 4 3 3 3 4 6 8 16 21 19 19 18 17 16 15 12 12 18 18 13 14 23 26 21 17 9 6 13 10 4 6 8 4 6 11 16 8 4 5 6 5 6 6 8 7 7 6 3 4 5 3 1 2 1 1 7 9 4 8 12 8 7 6 9 15 14 14 16 17 17 18 17 16 15 15 13 11
12 12 11 11 11 10 9 6 5 5 5 5 4 5 5 8 12 13 14 14 14 16 17 19 20 19 14 11 15 21 22 20 24 29 25 20 16 10 13 14 6 5 8 6 7 8 10 6 8 11 7 3 7 8 10 8 7 8 5 4 4 3 0 3 3 4 5 7 5 7 11 7 6 8 11 13 13 12 16 17 17 18 17 16 15 15 13 10
12 12 11 11 10 9 7 4 4 6 5 5 5 5 8 12 15 16 16 12 10 12 14 18 21 21 17 12 12 19 26 20 17 27 29 21 18 14 11 11 7 6 8 8 7 5 5 5 11 12 7 6 8 11 10 7 5 5 5 5 1 2 2 2 4 4 7 6 9 10 9 6 5 7 9 13 16 17 16 17 16 17 16 16 15 13 11 9
13 13 12 11 9 8 5 2 4 7 6 6 5 6 10 13 16 16 13 9 6 7 12 14 16 18 19 16 11 11 18 18 16 24 28 23 18 11 6 6 7 7 7 10 12 9 5 7 11 10 10 8 8 9 9 7 5 3 3 4 1 3 1 2 2 4 9 8 10 11 7 2 2 3 3 7 13 15 16 16 15 14 14 14 13 11 9 7
14 13 12 10 8 7 4 1 5 7 6 5 5 6 10 12 15 14 7 6 4 5 8 9 12 15 19 18 9 4 10 16 20 24 25 22 17 8 4 6 6 5 4 9 12 9 5 10 12 9 8 9 7 6 7 5 3 4 1 2 1 2 3 2 3 5 6 2 5 6 3 1 2 3 4 4 6 8 11 13 13 12 12 10 10 9 7 5
14 13 11 9 7 6 3 2 6 7 4 4 5 6 8 11 14 13 4 5 3 5 7 7 8 11 18 20 9 3 5 10 15 24 25 18 14 9 5 6 5 4 3 6 7 4 4 10 10 7 6 8 8 4 3 4 4 4 2 1 0 0 2 2 3 4 2 2 5 5 2 1 3 3 5 4 4 5 7 10 12 13 12 11 10 9 7 5
14 13 11 8 6 6 3 2 5 5 4 4 5 6 7 8 13 12 2 5 3 4 6 7 7 9 14 19 15 5 0 8 9 23 29 15 11 12 7 4 5 4 1 4 4 1 2 9 10 9 7 6 6 4 3 3 5 3 4 3 5 5 3 3 3 3 3 0 1 3 2 1 2 3 5 6 6 5 5 7 10 13 14 13 12 10 9 6
14 13 11 9 7 7 5 3 4 5 5 4 4 5 6 7 11 9 4 5 3 3 4 5 6 10 11 15 21 13 5 10 6 15 26 15 9 13 10 5 3 5 6 6 4 2 1 6 8 8 8 5 4 5 6 2 3 6 7 6 7 7 4 4 3 3 2 3 1 3 2 1 1 2 5 6 5 6 7 6 8 13 14 12 11 10 10 8
14 13 11 9 8 8 6 5 5 5 5 4 5 5 7 9 10 5 5 2 2 3 3 5 4 9 11 11 18 16 12 15 9 11 23 20 12 11 9 7 7 8 11 10 6 2 1 3 4 5 5 4 5 8 5 2 1 8 9 8 5 2 2 4 3 1 2 3 2 4 3 1 1 3 4 4 4 5 6 5 8 14 14 12 12 11 10 9
13 11 11 10 8 7 6 5 5 5 4 3 4 6 10 10 7 4 5 0 1 3 4 5 3 7 11 8 11 15 12 13 13 15 23 24 22 20 13 10 13 9 7 9 5 1 0 1 3 5 5 6 5 6 5 2 3 8 7 7 6 5 4 2 2 3 4 2 4 5 4 1 1 2 3 3 3 3 5 5 7 14 16 14 13 12 11 9
11 10 11 11 8 7 6 5 5 5 4 3 4 8 11 5 4 6 3 1 1 4 4 4 4 5 8 6 4 10 8 10 15 14 16 18 22 25 15 8 10 6 4 6 4 3 5 4 3 3 9 12 5 4 10 8 7 8 5 4 4 4 4 4 4 4 4 2 6 4 3 1 1 3 3 3 2 2 3 6 8 13 16 16 15 13 11 10
9 10 11 11 9 8 6 4 5 4 3 3 5 9 7 4 6 3 0 3 1 2 2 2 4 4 4 5 4 6 4 6 12 10 7 7 10 13 10 4 4 4 4 4 2 4 4 2 3 3 9 15 7 3 8 8 8 7 5 5 5 3 4 4 4 2 1 4 5 2 0 0 2 3 4 4 3 2 2 6 13 17 17 15 13 12 12 11
8 10 10 10 9 8 6 5 5 5 3 4 7 6 5 6 3 0 2 2 1 1 1 1 4 5 3 5 5 5 3 3 8 10 6 4 5 5 6 6 5 2 2 2 2 5 3 3 7 5 6 10 6 4 4 5 5 5 3 4 3 2 4 3 3 3 2 5 5 3 1 1 2 2 5 5 4 3 1 5 13 16 14 13 11 11 12 12
9 11 10 10 10 9 8 6 4 5 5 5 6 5 8 6 1 1 2 1 1 1 2 1 4 5 5 4 2 3 4 2 3 7 6 5 6 5 4 8 10 4 2 3 2 3 2 3 6 3 2 5 5 3 1 3 3 4 1 4 4 4 3 2 2 1 3 5 6 5 2 2 1 2 4 6 6 5 4 5 9 11 11 10 11 12 13 13
11 12 11 13 13 10 10 7 4 5 6 9 8 7 7 3 2 1 1 2 1 2 3 3 3 4 4 3 2 2 2 1 2 5 6 5 3 4 4 6 8 5 3 3 1 1 3 2 4 1 1 2 4 4 3 3 1 4 2 4 2 1 3 2 3 4 3 4 4 2 1 3 2 2 2 5 5 6 7 8 9 11 12 11 12 14 14 14
12 14 14 13 12 13 12 8 5 5 8 11 11 6 3 2 2 2 0 1 0 1 3 5 5 4 4 4 4 5 3 2 3 4 3 3 3 3 3 3 5 7 4 3 0 2 2 3 4 2 3 2 5 6 8 7 0 2 4 2 4 3 5 2 3 4 2 2 3 1 1 2 1 2 3 3 4 6 9 11 14 15 14 13 15 16 15 15
13 16 17 13 12 13 11 9 7 7 10 13 10 3 2 1 1 2 1 1 0 1 2 3 3 2 2 3 3 7 5 3 4 4 2 1 2 4 4 4 3 7 5 2 0 1 2 3 6 1 0 3 2 9 13 12 5 2 1 4 5 1 2 2 1 4 4 1 3 2 2 3 2 2 2 3 6 7 9 12 16 17 16 16 18 18 17 16
13 16 17 16 13 8 7 10 8 11 16 16 7 3 3 1 0 0 2 1 0 1 4 3 1 1 2 2 2 6 5 3 3 3 3 2 2 3 3 4 3 7 9 5 1 1 2 2 6 2 4 3 1 5 7 9 9 5 2 2 3 2 1 2 1 1 3 3 4 5 4 2 2 2 2 4 8 9 9 10 12 15 18 20 19 19 19 17
7 10 14 16 13 9 6 5 7 15 18 11 3 3 3 1 1 2 2 1 1 2 3 1 1 2 2 2 1 4 4 3 2 3 3 1 1 2 4 3 4 9 14 6 1 2 1 2 4 3 2 1 3 4 1 4 6 5 3 4 3 2 2 1 0 2 1 2 3 5 5 3 4 4 5 6 8 9 9 7 9 16 22 21 20 18 16 14
4 6 9 10 10 10 5 6 11 16 13 4 3 3 2 2 1 4 5 3 1 2 2 1 2 3 1 1 1 1 3 3 3 3 2 1 1 1 3 3 3 9 13 5 2 2 2 2 2 5 3 1 1 1 2 3 2 3 4 4 3 2 1 0 1 1 2 1 2 3 5 5 4 3 5 6 6 7 8 7 9 16 19 18 17 15 12 10
5 5 7 8 6 5 3 9 13 12 6 3 4 2 1 3 1 4 6 4 3 5 4 3 3 2 1 2 2 1 2 3 3 3 1 2 2 0 3 4 3 6 8 4 2 3 2 1 1 4 4 1 2 4 2 3 3 3 3 2 1 0 2 2 3 3 2 2 3 2 4 6 3 2 4 4 4 5 7 7 8 11 13 13 13 13 11 10
8 5 6 10 9 2 7 11 10 6 4 3 3 3 3 3 2 5 7 6 5 6 6 4 3 2 2 1 1 2 3 2 3 2 2 1 1 1 2 6 6 3 1 1 2 2 1 2 0 3 3 3 5 4 2 6 6 5 2 2 3 2 4 5 2 3 2 2 2 1 3 6 4 3 4 4 6 7 7 7 7 9 11 11 10 9 9 11
12 7 5 7 5 4 12 10 7 5 5 3 4 6 5 4 3 5 6 7 5 4 5 4 2 3 2 0 2 3 3 2 1 1 2 1 0 2 1 7 6 2 1 1 2 2 1 1 1 3 3 3 4 4 2 4 5 4 1 1 3 2 3 5 5 2 0 3 1 1 3 6 5 5 6 6 7 8 8 9 9 10 11 9 8 9 10 12
18 16 13 8 1 3 7 6 2 3 4 4 5 6 6 7 6 5 4 5 5 2 3 2 2 3 1 1 3 2 1 2 1 1 2 2 1 2 0 6 6 3 2 0 1 3 1 0 1 3 4 6 6 5 4 3 2 1 1 0 2 3 4 3 2 2 0 3 3 2 4 5 3 3 4 6 8 8 10 10 8 8 7 7 10 12 12 11
12 13 19 17 9 7 8 10 10 6 3 4 5 3 4 6 6 6 5 5 6 5 3 1 2 3 2 3 4 3 3 2 1 1 1 1 1 3 2 3 5 4 2 0 1 1 1 1 2 3 1 4 4 4 4 3 2 1 2 1 1 3 4 3 2 3 1 4 2 3 6 6 4 3 3 4 6 7 9 8 6 5 7 10 11 12 11 10
5 4 10 17 20 21 18 15 15 9 5 5 5 3 4 3 2 5 6 5 7 8 6 3 2 2 4 4 3 3 4 3 2 2 2 1 2 3 2 1 3 3 2 1 2 0 2 0 1 5 5 5 6 7 5 2 2 2 2 3 3 3 4 5 3 3 4 2 2 5 8 8 9 7 5 5 5 6 7 6 6 9 11 12 11 11 11 11
5 2 1 6 13 17 15 11 11 8 4 5 3 1 3 2 1 4 5 4 5 6 6 6 5 3 2 3 2 1 2 3 4 3 1 2 4 3 2 2 2 2 1 2 2 1 3 2 2 3 5 8 8 9 6 2 3 5 4 4 5 4 5 6 4 5 4 1 4 8 6 7 12 11 7 6 5 5 7 8 10 13 13 12 11 12 12 12
4 3 4 5 4 4 5 6 10 11 7 6 4 2 3 4 3 3 3 2 3 4 3 4 7 5 1 1 2 1 2 2 3 1 1 2 3 3 3 2 1 1 1 2 2 3 4 1 3 2 5 9 8 9 8 5 4 4 5 6 6 6 7 7 8 7 5 3 8 9 6 9 13 12 8 7 7 8 9 10 12 13 13 13 13 14 15 15
11 9 7 8 6 6 6 8 13 15 9 6 4 3 3 4 3 1 2 3 2 5 5 3 4 7 3 0 3 3 1 1 0 2 1 1 2 1 2 2 1 1 2 2 1 2 3 2 3 2 4 10 9 7 6 6 4 4 5 7 7 7 9 9 8 7 6 7 11 11 12 14 12 10 9 8 10 10 10 11 12 13 14 14 15 18 18 17
11 9 11 17 13 10 10 8 10 10 6 5 5 2 2 4 2 1 3 4 1 4 5 4 2 5 4 4 5 4 3 3 4 4 3 2 1 1 1 1 2 3 5 3 1 1 2 2 3 2 2 8 8 4 3 5 5 6 7 7 6 7 8 7 7 6 6 9 11 10 11 13 10 8 10 10 10 10 10 11 13 14 15 16 18 20 21 20
11 14 21 23 11 6 6 6 6 6 4 4 3 1 2 2 1 2 3 5 3 1 2 2 1 3 4 6 4 3 3 3 5 4 4 4 3 3 2 2 3 1 4 2 1 2 1 2 3 4 3 6 5 2 4 4 3 6 10 10 8 7 6 6 6 5 6 7 8 7 7 9 7 5 7 9 10 11 11 13 15 17 18 19 21 23 23 22
21 21 19 18 8 5 5 4 4 5 2 2 2 2 3 3 2 5 3 3 5 5 2 1 2 2 2 3 1 4 3 3 4 3 3 3 4 4 4 2 4 3 1 1 0 1 2 2 1 2 1 6 5 4 4 3 4 6 8 8 9 8 7 6 5 6 8 6 4 5 7 8 6 3 5 7 9 10 12 14 16 19 20 20 22 24 23 21
Wind_Direction
50 48 48 49 48 47 46 44 42 38 35 32 29 26 22 17 10 3 357 354 353 353 352 353 359 360 356 345 331 326 324 340 349 339 339 335 320 307 302 303 307 302 305 312 310 307 300 335 337 341 230 211 240 240 212 225 223 206 136 141 258 231 213 241 236 237 135 129 56 61 78 95 79 83 100 74 63 65 65 66 70 81 88 97 105 106 108 113
43 42 45 44 42 40 40 40 38 35 32 28 26 23 21 18 12 8 2 356 351 347 347 348 355 356 351 344 330 325 331 337 350 350 337 318 317 314 311 312 311 305 308 312 313 313 304 280 26 343 239 231 241 231 207 215 204 185 125 176 239 207 235 312 80 65 87 128 97 67 68 69 36 36 98 83 50 53 56 52 69 83 83 89 100 111 117 121
36 36 37 35 34 34 34 31 27 24 20 16 13 10 8 7 5 4 2 359 355 349 346 345 350 352 348 342 329 325 338 354 40 33 29 340 334 330 321 312 308 308 311 314 316 316 309 299 318 351 279 248 240 232 214 197 193 191 165 197 243 221 269 19 78 83 98 130 108 76 75 58 40 56 100 105 66 51 47 34 49 66 74 84 95 105 112 116
29 26 24 23 22 22 20 17 13 8 4 1 357 353 351 350 349 351 351 353 354 352 348 345 347 350 345 336 326 329 346 32 68 63 49 1 339 328 320 309 310 313 313 316 316 307 316 330 315 317 307 273 251 244 214 186 190 191 172 199 236 235 294 37 67 68 90 116 106 89 85 63 50 60 84 102 73 48 44 47 54 64 76 88 95 98 105 111
20 16 11 8 6 5 1 359 356 353 351 348 346 343 340 339 339 339 339 341 343 347 348 346 347 348 348 340 326 332 353 35 37 33 350 331 320 319 321 317 320 320 322 325 324 330 1 4 348 303 301 286 286 291 227 200 195 194 202 218 236 269 312 54 56 55 85 105 99 80 77 82 68 56 63 79 78 70 61 65 75 80 84 88 92 96 99 99
8 4 360 354 352 349 346 345 343 342 341 340 339 336 336 334 334 333 332 333 333 338 343 343 344 345 347 341 332 343 21 83 346 352 337 325 322 323 323 322 326 325 333 335 334 38 8 345 319 284 271 273 275 268 265 239 208 212 249 229 252 306 42 83 68 71 91 91 81 83 95 99 88 66 66 77 81 88 81 81 85 84 88 92 94 93 90 86
358 352 348 343 342 338 336 336 335 336 336 336 335 334 335 333 333 331 328 328 327 328 335 337 339 344 343 339 345 6 69 106 32 352 338 331 330 329 321 321 343 340 339 352 26 21 340 318 301 279 260 262 264 250 282 290 238 214 269 266 290 347 90 108 92 92 93 89 90 101 99 85 87 84 74 78 83 88 85 86 87 88 91 95 93 85 83 81
350 345 341 337 336 334 334 333 332 334 333 333 333 334 334 333 332 329 327 325 324 323 324 329 332 341 344 340 3 50 81 56 2 346 340 342 336 330 320 313 342 353 9 37 23 358 324 330 342 331 299 273 321 313 323 334 337 178 310 343 351 43 101 111 105 103 98 98 100 92 83 81 90 89 77 79 84 86 87 85 84 89 89 87 84 80 82 81
346 343 340 338 336 336 335 334 334 333 331 333 332 333 333 333 332 331 332 328 326 322 316 324 331 349 7 9 35 69 56 9 352 346 345 344 335 327 319 309 326 343 3 38 16 342 324 338 353 5 340 307 346 340 344 15 10 11 25 13 30 81 111 111 107 109 106 105 100 88 84 91 92 85 75 79 88 89 89 81 77 81 80 77 77 77 79 79
346 344 342 341 340 340 340 339 338 334 333 333 331 334 335 335 337 338 337 331 329 322 317 328 341 33 54 41 57 72 17 4 352 348 348 344 336 327 319 313 317 329 335 351 24 323 306 316 319 337 323 315 348 334 338 68 286 328 3 360 16 98 126 125 116 112 106 104 103 97 83 70 70 82 84 85 92 97 87 75 71 74 73 73 75 75 75 75
349 349 347 346 345 344 343 341 340 336 334 333 334 339 341 342 344 346 346 341 338 335 350 42 93 84 77 58 67 71 19 10 359 356 354 347 343 338 342 345 335 334 331 358 66 322 287 297 300 301 306 330 337 331 347 26 333 334 3 344 321 326 301 141 129 121 108 101 109 104 77 50 58 79 98 98 93 92 86 76 72 74 72 72 73 71 71 71
355 355 353 352 350 346 345 343 340 337 337 338 340 344 347 348 351 358 4 3 8 31 58 92 101 104 99 69 62 50 17 8 6 7 360 350 345 345 4 12 0 3 1 11 69 304 291 307 303 288 321 337 327 341 0 347 341 337 10 345 309 339 322 176 145 138 119 130 130 114 76 41 50 91 105 105 96 90 86 78 75 75 73 72 71 69 68 67
359 359 358 356 353 348 346 345 342 342 344 343 345 351 353 357 9 20 28 33 43 58 70 90 96 107 102 70 53 34 16 10 9 11 9 2 350 341 358 9 2 6 4 344 292 294 308 321 297 260 319 325 310 319 306 309 317 306 359 130 297 358 341 312 151 136 109 147 153 125 62 44 64 110 111 107 99 92 85 81 80 77 75 73 71 71 67 66
360 359 359 357 353 349 347 346 346 345 346 346 349 355 359 10 29 37 42 48 58 69 82 98 98 93 87 77 54 26 19 21 16 13 13 11 5 348 340 345 342 351 356 344 334 341 350 339 310 304 319 307 287 300 308 315 307 252 344 42 11 43 294 338 35 105 90 169 165 90 90 108 90 110 109 109 102 95 90 86 85 81 79 76 74 73 69 67
357 356 356 356 352 347 345 346 346 345 346 349 353 1 10 30 44 43 52 63 71 82 96 101 98 85 75 78 57 17 18 29 23 16 6 1 7 7 352 339 332 357 12 359 2 30 49 93 36 356 343 322 309 321 337 347 353 56 28 317 5 82 257 343 20 53 105 179 85 62 115 111 95 105 106 109 101 97 97 94 90 85 82 79 77 76 73 71
350 350 350 351 349 344 343 344 345 346 347 351 1 11 25 46 48 47 69 79 75 80 92 88 88 91 74 56 27 11 20 26 19 13 1 355 2 5 4 30 43 23 28 21 25 60 62 62 24 10 17 8 359 4 20 18 348 5 68 292 334 65 281 319 10 26 81 146 23 48 131 124 103 107 106 109 102 100 99 96 93 88 85 83 81 79 78 75
342 344 343 345 346 342 342 344 346 347 349 358 8 24 47 55 45 47 77 90 82 79 83 83 91 99 70 32 5 1 14 21 10 5 357 356 6 11 21 49 63 46 24 8 10 58 50 32 53 35 31 23 10 41 47 30 346 328 33 4 308 93 67 292 354 26 47 82 52 65 107 109 112 109 107 108 105 103 99 97 95 92 91 87 86 84 81 77
338 338 339 341 342 341 343 345 348 349 354 4 13 48 71 63 55 53 69 105 95 81 74 61 66 105 50 17 6 355 7 20 5 358 356 6 16 16 32 42 49 43 353 340 1 52 40 30 55 52 22 20 12 54 67 356 300 299 326 328 313 354 40 43 22 20 51 74 82 85 96 104 106 105 107 108 109 105 101 102 99 97 96 92 90 87 83 81
339 338 338 339 339 341 343 345 349 354 3 9 18 74 96 78 69 65 71 83 78 74 65 36 40 93 37 9 14 10 19 22 4 2 8 20 25 26 28 30 40 24 357 21 26 43 53 38 42 36 357 359 349 40 91 245 257 258 271 264 337 8 28 65 43 67 89 80 74 96 106 111 103 98 106 109 110 108 105 106 102 101 100 97 94 88 83 80
341 340 339 340 340 341 342 345 351 0 15 20 27 95 127 96 73 64 68 73 70 69 72 49 44 57 51 20 22 26 39 33 13 16 22 18 27 43 26 23 60 23 7 75 56 43 61 58 30 12 322 328 330 353 31 343 341 298 291 16 24 53 43 356 47 104 109 90 58 101 106 106 106 105 116 117 113 109 109 107 107 109 107 104 101 95 89 81
343 342 341 343 342 340 342 345 356 13 25 34 50 92 112 101 110 97 78 75 74 72 65 57 52 50 48 36 30 30 39 38 26 27 28 22 36 51 29 39 86 19 2 65 87 52 56 56 348 319 297 336 356 15 38 28 29 27 23 44 40 72 98 296 319 78 100 95 91 109 103 93 94 89 102 110 108 109 116 116 117 118 115 114 111 106 101 91
344 343 342 343 341 341 344 350 12 21 31 44 59 83 93 108 119 116 102 89 79 73 60 53 54 51 50 51 37 30 34 32 22 24 25 29 46 49 38 48 65 31 11 42 72 47 46 33 327 313 302 28 26 27 46 40 46 45 36 74 50 21 46 295 330 19 65 99 127 114 101 85 71 65 66 78 85 97 116 123 125 126 125 125 123 118 114 105
347 344 343 342 343 346 350 10 31 27 43 56 67 96 110 123 124 115 109 102 81 65 51 44 45 41 39 37 27 30 39 35 11 12 14 20 37 39 43 51 57 50 37 53 70 66 60 348 325 337 3 68 45 23 37 36 41 55 49 75 306 330 78 303 316 24 43 87 128 114 97 83 68 65 65 78 89 95 107 117 120 125 128 128 129 127 124 121
351 350 349 346 350 354 358 40 29 32 51 57 76 116 128 135 138 129 111 98 90 60 49 40 32 31 27 20 14 30 44 41 22 11 9 13 24 28 38 49 55 55 57 75 75 74 69 331 337 15 38 63 61 29 29 35 16 359 69 84 310 308 342 262 220 83 54 70 118 110 87 81 95 90 91 99 104 105 109 112 115 123 128 130 133 132 132 137
355 356 356 355 356 358 5 14 12 31 51 62 91 125 139 150 156 153 126 86 81 17 27 30 20 23 17 12 18 70 61 45 31 16 7 13 21 20 21 32 54 66 76 83 74 71 40 351 6 35 35 40 61 43 28 43 14 333 354 120 236 274 304 286 151 104 73 87 172 133 89 276 138 130 170 148 114 116 121 124 129 134 137 140 140 139 147 158
359 359 1 3 2 1 3 353 5 21 43 70 100 126 144 164 172 171 151 72 42 337 1 7 4 17 15 13 17 128 73 30 27 20 12 15 24 30 21 10 41 72 111 96 75 80 8 356 20 45 41 44 51 41 13 53 55 346 292 190 256 235 303 260 160 110 105 209 209 174 148 225 188 178 189 166 130 139 143 144 149 148 146 144 144 149 160 176
1 2 3 4 9 8 4 1 7 19 46 71 101 133 148 165 177 181 140 50 12 331 2 355 357 21 22 23 31 95 45 337 7 18 13 17 35 51 58 12 27 16 320 110 60 27 352 359 18 34 36 47 40 6 319 51 68 306 284 3 333 303 275 220 163 160 200 156 112 172 147 167 199 179 173 155 143 164 172 165 159 151 148 149 153 162 172 193
359 1 2 3 9 10 11 20 20 37 56 78 106 134 150 155 171 175 101 67 339 334 4 350 14 28 31 39 43 67 50 359 8 6 13 32 53 58 59 23 52 21 8 98 109 292 359 16 15 28 29 32 12 314 288 48 78 268 284 331 309 277 223 189 157 182 209 59 4 244 169 158 259 128 149 161 161 186 190 177 163 153 156 165 173 185 195 211
357 359 4 5 7 9 16 27 34 44 55 87 103 129 145 140 154 142 74 99 309 355 1 357 12 7 16 43 40 44 40 29 33 5 19 43 59 69 69 31 65 66 35 71 127 212 111 50 24 43 35 360 314 295 279 119 357 290 306 327 321 346 135 166 151 133 43 60 251 238 159 146 275 147 169 187 186 202 194 178 169 163 167 180 187 195 205 219
356 1 8 7 5 6 12 22 30 37 52 85 98 126 137 132 131 76 46 135 12 1 334 1 3 344 8 34 24 20 31 31 26 21 27 38 49 61 74 57 55 72 49 48 79 140 135 49 27 50 27 336 301 320 355 62 321 323 339 346 356 21 39 81 110 86 60 7 258 223 176 158 301 211 201 209 203 205 189 175 170 171 175 183 184 187 199 218
1 9 9 7 9 11 18 25 19 28 51 80 115 132 132 113 69 83 80 255 340 350 333 357 355 355 27 59 18 3 18 20 14 24 28 27 39 42 43 42 31 35 41 26 29 15 7 15 16 38 24 9 359 2 3 4 9 12 17 21 16 357 8 21 1 45 71 286 256 222 186 157 256 235 216 212 232 253 204 181 176 177 179 181 185 192 207 227
15 16 9 9 16 15 17 18 14 29 49 69 129 149 138 54 30 86 12 312 331 356 342 319 330 351 36 59 29 352 6 20 13 26 36 27 39 42 44 38 358 27 34 0 7 15 6 19 356 359 29 24 30 20 353 353 17 23 16 38 51 7 5 10 341 16 89 258 254 230 159 156 252 235 198 190 213 278 269 184 182 182 181 186 196 208 224 243
25 21 15 14 18 16 13 10 19 42 48 84 125 138 96 69 48 266 308 347 165 262 340 279 326 348 36 45 11 344 16 28 15 21 24 43 49 46 59 37 14 65 55 359 23 10 338 326 355 4 17 18 40 57 354 326 352 0 10 48 77 68 27 332 302 341 309 274 285 307 300 217 300 266 199 182 184 198 179 173 185 189 191 200 214 227 243 260
33 27 25 27 26 22 21 16 24 53 65 109 122 80 64 80 138 353 1 323 267 329 10 2 336 352 34 55 351 342 35 16 27 35 12 25 38 11 13 16 15 37 59 42 41 30 50 326 348 14 334 355 41 57 257 230 303 312 100 96 98 108 108 222 247 288 281 281 299 324 333 190 223 287 202 172 173 188 187 182 190 200 209 219 234 244 255 267
41 34 37 43 41 38 39 37 55 81 105 113 89 60 74 106 211 82 351 269 324 347 330 350 33 34 10 13 353 2 48 353 61 69 27 29 52 3 347 349 2 18 45 56 6 14 91 262 281 330 326 36 56 0 356 99 322 300 72 85 41 117 154 199 222 224 253 298 301 320 327 198 191 304 237 175 182 202 210 217 215 220 227 232 242 252 260 267
50 48 49 52 51 48 45 45 68 111 136 113 74 52 104 151 203 144 215 257 75 332 324 352 35 60 0 348 358 350 2 31 52 67 33 55 84 14 343 309 3 28 44 92 36 347 59 268 268 351 356 53 91 52 38 56 38 314 35 359 276 219 157 156 273 280 12 359 286 261 284 290 322 304 251 210 234 225 219 229 228 228 232 237 248 259 265 266
56 58 54 54 53 47 48 59 85 129 121 95 77 76 145 142 197 181 312 332 198 177 86 35 17 57 15 6 347 334 347 15 31 47 36 47 50 13 348 312 9 37 23 31 162 196 119 289 277 178 135 272 126 83 55 49 70 99 9 290 291 328 106 102 315 330 15 353 272 281 276 284 330 308 260 243 253 243 233 231 229 232 234 238 251 260 265 267
60 61 54 48 43 33 49 69 100 129 101 80 75 94 99 61 356 217 315 345 208 83 77 88 171 125 82 75 324 326 358 14 358 35 60 37 11 33 21 323 340 18 2 1 17 218 116 354 290 205 147 259 309 75 43 28 51 92 183 290 21 62 2 5 55 333 344 311 286 301 302 269 208 214 216 227 236 239 238 227 224 231 229 234 251 261 266 266
56 61 50 41 40 35 45 87 124 112 90 74 82 96 92 118 31 26 14 15 159 93 67 78 106 70 77 122 215 316 15 46 8 37 77 67 6 47 50 348 309 343 349 3 116 288 77 105 291 283 156 197 7 42 349 321 6 33 37 11 29 132 179 258 198 183 238 295 293 309 322 298 234 204 183 212 227 228 234 226 218 227 230 238 252 261 266 261
62 67 43 30 44 48 58 130 107 86 77 81 127 107 103 132 64 28 34 33 66 86 78 28 56 71 60 89 149 315 36 47 38 56 63 32 34 33 28 24 312 328 341 5 115 334 1 124 265 303 327 345 349 17 183 212 306 15 36 18 350 342 33 249 280 205 144 182 263 302 305 276 248 192 180 215 230 219 218 214 216 227 234 243 251 257 268 268
85 74 29 20 32 27 84 97 71 58 64 86 87 80 86 118 99 25 28 32 49 64 83 92 79 109 126 48 13 354 45 31 26 61 59 17 52 45 350 9 337 321 343 15 41 359 11 102 236 292 331 354 244 269 240 174 159 137 110 114 173 352 64 78 311 309 80 140 203 245 282 271 252 189 188 207 209 193 190 192 207 228 238 247 254 263 274 274
85 72 16 21 17 356 106 79 37 29 74 74 73 73 78 107 71 21 24 35 48 51 60 73 71 68 87 82 29 44 70 45 9 47 94 72 84 178 324 354 341 313 351 12 325 332 72 93 103 278 283 236 252 299 74 115 105 96 105 132 133 123 109 124 225 280 345 315 265 198 266 272 261 220 205 198 194 187 188 203 227 246 252 252 255 266 278 279
71 59 19 27 28 101 105 78 14 33 68 72 95 71 61 81 52 24 28 31 28 40 47 44 48 60 59 97 72 63 68 66 24 75 128 156 167 223 315 6 2 1 61 324 298 335 36 66 353 296 295 288 298 329 65 100 75 65 17 63 110 137 143 150 179 188 241 283 311 43 278 272 266 237 218 206 200 197 209 228 243 252 253 249 256 280 293 289
74 61 46 42 218 181 109 101 96 80 79 91 86 62 58 67 51 35 32 21 17 44 64 33 28 48 41 64 75 84 92 80 60 65 129 148 174 218 49 29 28 37 46 69 293 339 331 198 29 357 342 343 340 343 339 324 6 112 225 329 111 118 98 96 123 110 241 245 174 153 250 259 262 250 229 209 197 201 219 232 239 245 255 272 285 293 295 287
79 61 48 52 86 118 103 122 131 120 123 105 79 57 66 58 41 50 57 39 36 49 75 68 12 19 18 55 65 44 42 72 115 15 47 61 240 219 209 27 31 39 48 188 289 336 203 186 100 93 4 317 308 301 287 272 279 162 160 176 156 127 119 126 122 112 216 254 192 198 252 267 276 282 275 241 214 218 229 226 223 246 281 297 294 289 286 283
86 67 45 52 72 84 89 105 110 107 131 118 77 54 67 58 41 56 54 47 42 46 63 57 359 358 21 43 64 31 19 38 68 83 68 336 272 246 227 295 7 16 40 22 337 35 121 337 129 143 181 222 238 254 243 200 247 256 213 216 216 175 129 118 118 165 197 229 271 239 244 274 289 291 291 268 236 227 225 219 247 282 296 298 289 284 284 286
80 62 47 60 69 74 77 80 83 90 130 130 102 64 66 62 17 33 37 53 54 51 63 49 30 34 24 36 70 45 357 28 42 65 113 248 264 274 263 242 295 336 45 50 347 72 91 335 283 163 213 232 236 255 253 208 225 232 223 224 216 193 137 128 180 221 181 113 283 247 227 271 288 291 289 263 232 215 220 241 276 292 294 288 285 286 286 288
89 95 94 110 103 66 59 69 81 83 82 90 95 91 78 58 36 33 16 35 58 45 50 39 21 21 343 189 121 71 359 32 29 13 182 250 293 336 329 269 249 346 45 50 18 99 108 264 243 192 265 267 263 264 249 222 231 227 208 212 213 199 178 184 224 228 164 172 258 260 263 274 279 287 284 244 215 217 235 260 281 289 285 281 284 289 290 292
114 116 82 88 108 109 108 104 94 83 64 61 67 54 86 76 61 97 348 6 22 11 37 74 352 354 359 95 122 116 357 111 208 277 223 208 288 347 359 303 254 333 23 46 31 101 116 251 243 192 287 293 292 278 235 209 240 264 235 222 215 210 205 211 234 230 200 228 255 268 278 274 272 281 276 245 227 236 252 267 278 285 287 287 290 292 294 296
124 132 114 104 96 92 102 98 91 84 50 46 66 42 75 86 85 112 21 39 60 337 28 86 329 346 37 52 84 131 209 189 186 224 196 160 249 215 169 225 236 328 8 39 14 36 96 281 279 107 333 299 294 289 235 219 238 265 262 247 227 225 228 226 233 233 231 249 260 270 279 278 274 266 256 243 236 243 255 265 278 292 296 293 291 292 293 295
129 135 128 116 90 41 84 88 84 92 42 19 59 40 34 59 128 133 48 44 92 62 51 118 301 348 56 50 66 156 205 179 175 204 192 181 216 213 207 203 189 297 347 3 340 12 66 298 332 54 16 288 274 280 274 265 283 287 278 263 237 226 229 225 221 211 202 230 265 284 284 280 274 248 240 237 232 240 258 276 292 299 296 292 290 291 293 294
125 129 127 117 92 14 44 56 42 74 76 354 70 95 79 81 122 123 93 38 70 78 64 68 47 54 71 45 73 191 202 198 202 215 207 222 243 227 226 217 171 175 216 175 225 351 105 98 349 51 356 275 278 308 316 353 1 303 272 245 222 214 223 238 244 227 208 209 246 265 265 274 277 254 248 246 237 250 278 294 300 299 295 293 292 293 294 291